Regional Weather Roundup
Issued by NWS Albany, NY

Home | Current Version | Previous Version | Text Only | Print | Product List | Glossary On
Versions: 1 2 3 4 5 6 7 8 9 10 11 12 13 14 15 16 17 18 19 20 21 22 23 24 25 26 27 28 29 30 31 32 33 34 35 36 37 38 39 40 41 42 43 44 45 46 47 48 49 50
000
ASUS41 KALY 232010
RWRALY

NEW YORK STATE HOURLY WEATHER ROUNDUP
NATIONAL WEATHER SERVICE ALBANY NY
300 PM EST MON JAN 23 2017

NOTE: "FAIR" INDICATES FEW OR NO CLOUDS BELOW 12,000 FEET WITH NO
SIGNIFICANT WEATHER AND/OR NO OBSTRUCTIONS TO VISIBILITY.

NYZ032-033-038>043-046>054-057>066-NYZ062>081-082-084-232100-
EAST


CITY           SKY/WX    TMP DP  RH WIND       PRES   REMARKS
ALBANY         CLOUDY    37  24  59 NE10      29.90S WCI  30
GLENS FALLS    PTSUNNY   36  24  62 E12       29.93S WCI  28
POUGHKEEPSIE   CLOUDY    37  28  70 NE16G23   29.78F WCI  28
MONTGOMERY     CLOUDY    38  28  67 NE17G24   29.74F WCI  28
WHITE PLAINS   CLOUDY    40  27  59 NE17G31   29.69F WCI  31
ISLIP          LGT RAIN  39  32  76 NE31G40   29.68F WCI  27
NEW YORK CITY  CLOUDY    43  31  62 NE35G44   29.68F
CENTRAL PARK   CLOUDY    40  31  70 E24G38    29.70F WCI  29
$$

NYZ005>009-017-018-044>046-055-056-232100-
CENTRAL


CITY           SKY/WX    TMP DP  RH WIND       PRES   REMARKS
FULTON         PTSUNNY   38  30  73 VRB6      29.78F WCI  33
SYRACUSE       PTSUNNY   37  27  67 E21G31    29.77F WCI  26
ROME           PTSUNNY   36  27  69 E22G28    29.83S WCI  25
ELMIRA         CLOUDY    42  31  64 E13       29.67R
BINGHAMTON     CLOUDY    33  26  75 E12G24    29.67S WCI  24
MONTICELLO     CLOUDY    32  25  74 E23G31    29.70F WCI  19
$$

NYZ026>034-041>043-087-232100-
NORTH


CITY           SKY/WX    TMP DP  RH WIND       PRES   REMARKS
WATERTOWN      CLOUDY    38  33  82 NE15      29.80F WCI  29
FORT DRUM      NOT AVBL
OGDENSBURG     CLOUDY    33  29  84 NE12G21   29.89F WCI  25
MASSENA        CLOUDY    32  25  75 NE17      29.95F WCI  21
SARANAC LAKE   CLOUDY    32  24  72 E12       29.83S WCI  23
PLATTSBURGH    PTSUNNY   37  24  59 SE9       29.97F WCI  30
$$

NYZ001>004-010>016-019>021-085-232100-
WEST


CITY           SKY/WX    TMP DP  RH WIND       PRES   REMARKS
NIAGARA FALLS  CLOUDY    44  36  73 NE16      29.68S
BUFFALO        CLOUDY    43  37  79 NE15      29.67S
DUNKIRK        MOSUNNY   50  40  68 NE20      29.62F
JAMESTOWN      MOSUNNY   45  36  70 NE14      29.58S
WELLSVILLE     PTSUNNY   43  34  70 E10       29.62R
ROCHESTER      PTSUNNY   42  32  67 E14       29.73S
PENN YAN       PTSUNNY   42  31  64 NE7       29.71R
$$

             KEY
       WCI = WIND CHILL INDEX
       VSB = VISIBILITY
       HX  = HEAT INDEX
$$



USA.gov is the U.S. government's official web portal to all federal, state and local government web resources and services.